Bonaire, Netherlands

3:34 AM AST on February 22, 2018 (GMT -0400)
Flamingo

Weather History for TNCB - October, 2012

Change the Weather History Date:

Saturday, October 27, 2012

  Actual Average Record
Temperature  
Mean Temperature 86 °F -  
Max Temperature 93 °F 86 °F 93 °F (2012)
Min Temperature 80 °F 79 °F 68 °F (2007)
Cooling Degree Days 22    
Growing Degree Days 36 (Base 50)    
Moisture  
Dew Point 79 °F    
Average Humidity 79    
Maximum Humidity 94    
Minimum Humidity 57    
Precipitation  
Precipitation 0.00 in - - ()
Sea Level Pressure  
Sea Level Pressure 29.81 in    
Wind  
Wind Speed 6 mph ()    
Max Wind Speed 10 mph    
Max Gust Speed -    
Visibility 7.6 miles    
Events      
Averages and records for this station are not official NWS values.
T = Trace of Precipitation, MM = Missing Value Source: Averaged Metar Reports

Daily Weather History Graph

Daily Weather History Graph

Search for Another Location

Airport or City:

Trip Planner

Search our weather history database for the weather conditions in past years. The results will help you decide how hot, cold, wet, or windy it might be!

Date:

Astronomy

Oct. 27, 2012 Rise Set
Actual Time 6:24 AM AST 6:08 PM AST
Civil Twilight 6:03 AM AST 6:30 PM AST
Nautical Twilight 5:38 AM AST 6:55 PM AST
Astronomical Twilight 5:13 AM AST 7:20 PM AST
Moon 4:41 PM AST (10/27) 4:32 AM AST (10/27)
Length of Visible Light 12h 27m
Length of Day
11h 44m
Waxing Gibbous, 96% of the Moon is Illuminated
Oct 27
Waxing Gibbous
Oct 29
Full
Nov 6
Last Quarter
Nov 13
New
Nov 20
First Quarter

Hourly Weather History & Observations

Time (AST) Temp. Heat Index Dew Point Humidity Pressure Visibility Wind Dir Wind Speed Gust Speed Precip Events Conditions
1:00 AM 82.4 °F 92.4 °F 78.8 °F 89% 29.83 in - North - - N/A   Unknown
2:00 AM 82.4 °F 92.4 °F 78.8 °F 89% 29.80 in - North - - N/A   Unknown
4:00 AM 80.6 °F 88.1 °F 78.8 °F 94% 29.80 in - North - - N/A   Unknown
5:00 AM 80.6 °F 88.1 °F 78.8 °F 94% 29.80 in - North - - N/A   Unknown
6:00 AM 80.6 °F 88.1 °F 78.8 °F 94% 29.80 in - North - - N/A   Unknown
8:00 AM 85 °F - 81 °F 84% 29.85 in 19 mi East 9.2 mph - -   Scattered Clouds
8:00 AM 86.0 °F 101.9 °F 80.6 °F 84% 29.83 in 6.2 mi East 9.2 mph - N/A   Partly Cloudy
9:00 AM 87.8 °F 104.9 °F 80.6 °F 79% 29.86 in 6.2 mi SE 10.4 mph - N/A   Partly Cloudy
10:00 AM 87.8 °F 102.5 °F 78.8 °F 75% 29.86 in 6.2 mi Calm Calm - N/A   Partly Cloudy
11:00 AM 87.8 °F 104.9 °F 80.6 °F 79% 29.86 in 6.2 mi South 9.2 mph - N/A   Scattered Clouds
12:00 PM 89.6 °F 104.7 °F 78.8 °F 70% 29.86 in 6.2 mi South 9.2 mph - N/A   Scattered Clouds
1:00 PM 89.6 °F 104.7 °F 78.8 °F 70% 29.83 in 6.2 mi South 9.2 mph - N/A   Scattered Clouds
2:00 PM 90 °F - 79 °F 62%  in 6 mi South 9.2 mph - -   Clear
2:00 PM 89.6 °F 104.7 °F 78.8 °F 70% 29.80 in 6.2 mi South 9.2 mph - N/A   Scattered Clouds
3:00 PM 91.4 °F 107.2 °F 78.8 °F 66% 29.77 in 6.2 mi SE 6.9 mph - N/A   Partly Cloudy
4:00 PM 93.2 °F 113.6 °F 80.6 °F 67% 29.77 in - North - - N/A   Unknown
5:00 PM 90 °F - 77 °F 57%  in 6 mi Calm Calm - -   Clear
5:00 PM 89.6 °F 102.2 °F 77.0 °F 66% 29.74 in - North - - N/A   Unknown
6:00 PM 86.0 °F 99.3 °F 78.8 °F 79% 29.74 in 6.2 mi East 8.1 mph - N/A   Partly Cloudy
7:00 PM 84.2 °F 96.1 °F 78.8 °F 84% 29.77 in 6.2 mi East 8.1 mph - N/A   Partly Cloudy
8:00 PM 85 °F - 80 °F 80% 29.79 in 16 mi ENE 6.9 mph - -   Scattered Clouds
8:00 PM 84.2 °F 96.1 °F 78.8 °F 84% 29.77 in 6.2 mi East 8.1 mph - N/A   Partly Cloudy
11:00 PM 83 °F - 80 °F 86%  in 6 mi Calm Calm - -   Clear
11:00 PM 82.4 °F 92.4 °F 78.8 °F 89% 29.83 in - North - - N/A   Unknown